Flag for Canada Weather past 2 weeks in Port Coquitlam, British Columbia, Canada

Now
34 °F

Chilly.


Feels Like: 34 °F
Forecast: 20 / 35 °F
Wind: 2 mph from North

Location: P. Meadows Coastal Station

Current Time: Dec 29, 2014 at 12:10:52 AM

Latest Report: Dec 28, 2014 at 11:00 PM


Visibility: N/A

Pressure: 30.24 "Hg

Humidity: 98%

Dew point: 33 °F

Location of Port CoquitlamLocation

Historic Weather in Port Coquitlam — Graph

°F

Port Coquitlam temperature yesterday

Maximum temperature yesterday: 42 °F (at 1:00 PM)
Minimum temperature yesterday: 35 °F (at 9:00 AM)
Average temperature yesterday: 37 °F

Past Weeks' High & Low Weather Summary

 TemperatureHumidityPressure
High49 °F (Dec 21, 12:00 AM)100% (Dec 13, 11:00 PM)30.39 "Hg (Dec 13, 11:00 PM)
Low27 °F (Dec 15, 6:00 AM)63% (Dec 15, 2:00 PM)29.32 "Hg (Dec 20, 11:00 PM)
Average40 °F94%30.00 "Hg
* Reported Dec 13 10:00 PM — Dec 28 10:00 PM, Port Coquitlam, Weather by CustomWeather, © 2014

Note: Actual official high and low records may vary slightly from our data, if they occured in-between our weather recording intervals... More about our weather records

Advertising

Port Coquitlam weather history for previous 24 hours

 ConditionsComfort  
Time TempWeatherWind HumidityBarometerVisibility
10:00 PM
Dec 28
36 °FChilly.No wind96%30.22 "HgN/A
9:00 PM38 °FChilly.2 mph94%30.20 "HgN/A
8:00 PM38 °FChilly.3 mph95%30.20 "HgN/A
7:00 PM38 °FChilly.2 mph94%30.18 "HgN/A
6:00 PM38 °FChilly.2 mph93%30.18 "HgN/A
5:00 PM39 °FChilly.7 mph88%30.19 "HgN/A
4:00 PM39 °FChilly.6 mph93%30.19 "HgN/A
3:00 PM41 °FQuite cool.3 mph87%30.18 "HgN/A
2:00 PM42 °FQuite cool.2 mph83%30.18 "HgN/A
1:00 PM42 °FQuite cool.No wind86%30.19 "HgN/A
12:00 PM41 °FQuite cool.1 mph88%30.21 "HgN/A
11:00 AM38 °FChilly.1 mph95%30.22 "HgN/A
10:00 AM37 °FChilly.1 mph96%30.22 "HgN/A
9:00 AM35 °FChilly.No wind100%30.20 "HgN/A
8:00 AM36 °FChilly.1 mph98%30.18 "HgN/A
7:00 AM35 °FChilly.1 mph99%30.18 "HgN/A
6:00 AM35 °FChilly.2 mph99%30.16 "HgN/A
5:00 AM35 °FChilly.1 mph99%30.15 "HgN/A
4:00 AM35 °FChilly.2 mph99%30.13 "HgN/A
3:00 AM35 °FChilly.3 mph99%30.11 "HgN/A
2:00 AM35 °FChilly.2 mph99%30.08 "HgN/A
1:00 AM36 °FChilly.1 mph98%30.06 "HgN/A
12:00 AM37 °FChilly.2 mph97%30.04 "HgN/A
Weather by CustomWeather, © 2014

See weather overviewHow to use our weather pages